Weather History for South Marsh 268, LA

Change the Weather History Date:

Tuesday, June 17, 2014

  Actual Average Record
Temperature  
Mean Temperature 83 °F -  
Max Temperature 86 °F - - ()
Min Temperature 80 °F - - ()
Cooling Degree Days 18    
Growing Degree Days 33 (Base 50)    
Moisture  
Dew Point 75 °F    
Average Humidity 76    
Maximum Humidity 84    
Minimum Humidity 70    
Precipitation  
Precipitation 0.00 in - - ()
Sea Level Pressure  
Sea Level Pressure 30.09 in    
Wind  
Wind Speed 15 mph (SSE)    
Max Wind Speed 21 mph    
Max Gust Speed 20 mph    
Visibility 8 miles    
Events      
T = Trace of Precipitation, MM = Missing Value Source: NWS Daily Summary

Daily Weather History Graph

Daily Weather History Graph

Search for Another Location

Airport:

Trip Planner

Search our weather history database for the weather conditions in past years. The results will help you decide how hot, cold, wet, or windy it might be!

Date:

Astronomy

Jun. 17, 2014 Rise Set
Actual Time 6:08 AM CDT 8:08 PM CDT
Civil Twilight 5:41 AM CDT 8:35 PM CDT
Nautical Twilight 5:08 AM CDT 9:08 PM CDT
Astronomical Twilight 4:33 AM CDT 9:43 PM CDT
Moon No Moon Rise 11:02 AM CDT (6/17)
Length of Visible Light 14h 54m
Length of Day
14h 00m
Waning Gibbous, 73% of the Moon is Illuminated
Jun 17
Waning Gibbous
Jun 19
Last Quarter
Jun 27
New
Jul 5
First Quarter
Jul 12
Full

Hourly Weather History & Observations

Time (CDT) Temp. Heat Index Dew Point Humidity Pressure Visibility Wind Dir Wind Speed Gust Speed Precip Events Conditions
12:15 AM 82.4 °F 89.5 °F 75.2 °F 79% 30.10 in 6.0 mi SE 18.4 mph - N/A   Haze
12:35 AM 82.4 °F 89.5 °F 75.2 °F 79% 30.09 in 6.0 mi SE 18.4 mph - N/A   Haze
1:15 AM 82.4 °F 89.5 °F 75.2 °F 79% 30.09 in 7.0 mi SSE 20.7 mph - N/A   Mostly Cloudy
1:35 AM 82.4 °F 89.5 °F 75.2 °F 79% 30.08 in 6.0 mi SSE 18.4 mph - N/A   Haze
1:55 AM 82.4 °F 90.9 °F 77.0 °F 84% 30.08 in 6.0 mi SSE 18.4 mph - N/A   Haze
2:15 AM 82.4 °F 90.9 °F 77.0 °F 84% 30.09 in - SSE 19.6 mph - N/A   Partly Cloudy
2:35 AM 82.4 °F 89.5 °F 75.2 °F 79% 30.08 in 7.0 mi SSE 19.6 mph - N/A   Clear
2:55 AM 80.6 °F 86.2 °F 75.2 °F 84% 30.07 in 6.0 mi SSE 18.4 mph - N/A   Haze
3:15 AM 82.4 °F 89.5 °F 75.2 °F 79% 30.07 in 7.0 mi SSE 19.6 mph - N/A   Clear
3:35 AM 82.4 °F 89.5 °F 75.2 °F 79% 30.07 in 7.0 mi SSE 16.1 mph - N/A   Clear
3:55 AM 80.6 °F 86.2 °F 75.2 °F 84% 30.07 in 7.0 mi SSE 17.3 mph - N/A   Clear
4:15 AM 80.6 °F 86.2 °F 75.2 °F 84% 30.07 in 7.0 mi SSE 17.3 mph - N/A   Clear
4:35 AM 80.6 °F 86.2 °F 75.2 °F 84% 30.08 in 9.0 mi SSE 15.0 mph - N/A   Clear
4:55 AM 80.6 °F 86.2 °F 75.2 °F 84% 30.08 in 8.0 mi SSE 11.5 mph - N/A   Partly Cloudy
5:15 AM 80.6 °F 86.2 °F 75.2 °F 84% 30.08 in 9.0 mi SSE 16.1 mph - N/A   Clear
5:35 AM 80.6 °F 86.2 °F 75.2 °F 84% 30.08 in 8.0 mi SSE 16.1 mph - N/A   Clear
5:55 AM 80.6 °F 86.2 °F 75.2 °F 84% 30.08 in 8.0 mi SSE 13.8 mph - N/A   Clear
6:15 AM 80.6 °F 86.2 °F 75.2 °F 84% 30.09 in 9.0 mi SSE 9.2 mph 16.1 mph N/A   Clear
6:35 AM 80.6 °F 86.2 °F 75.2 °F 84% 30.09 in 8.0 mi SSE 15.0 mph - N/A   Partly Cloudy
6:55 AM 82.4 °F 89.5 °F 75.2 °F 79% 30.09 in 7.0 mi SSE 16.1 mph - N/A   Clear
7:35 AM 82.4 °F 90.9 °F 77.0 °F 84% 30.10 in 8.0 mi SSE 12.7 mph - N/A   Clear
7:55 AM 84.2 °F 92.3 °F 75.2 °F 74% 30.11 in 8.0 mi SSE 12.7 mph - N/A   Clear
8:15 AM 82.4 °F 89.5 °F 75.2 °F 79% 30.11 in 8.0 mi SSE 13.8 mph - N/A   Partly Cloudy
8:35 AM 84.2 °F 92.3 °F 75.2 °F 74% 30.12 in 9.0 mi Calm Calm - N/A   Partly Cloudy
8:55 AM 84.2 °F 92.3 °F 75.2 °F 74% 30.12 in 9.0 mi SSE 10.4 mph - N/A   Clear
9:15 AM 86.0 °F 95.1 °F 75.2 °F 70% 30.12 in 9.0 mi SSE 8.1 mph - N/A   Clear
9:35 AM 84.2 °F 92.3 °F 75.2 °F 74% 30.13 in 9.0 mi SSE 8.1 mph - N/A   Clear
9:55 AM 84.2 °F 92.3 °F 75.2 °F 74% 30.13 in 8.0 mi SSE 9.2 mph - N/A   Clear
10:15 AM 86.0 °F 95.1 °F 75.2 °F 70% 30.13 in 8.0 mi SSE 11.5 mph - N/A   Partly Cloudy
10:35 AM 86.0 °F 95.1 °F 75.2 °F 70% 30.13 in 8.0 mi SSE 8.1 mph - N/A   Partly Cloudy
10:55 AM 86.0 °F 95.1 °F 75.2 °F 70% 30.13 in 8.0 mi SSE 10.4 mph - N/A   Partly Cloudy
11:15 AM 84.2 °F 92.3 °F 75.2 °F 74% 30.14 in 8.0 mi SSE 12.7 mph - N/A   Scattered Clouds
11:35 AM 86.0 °F 95.1 °F 75.2 °F 70% 30.14 in 8.0 mi SSE 11.5 mph - N/A   Scattered Clouds
11:55 AM 86.0 °F 95.1 °F 75.2 °F 70% 30.14 in 9.0 mi SSE 11.5 mph - N/A   Partly Cloudy
12:15 PM 86.0 °F 95.1 °F 75.2 °F 70% 30.14 in 8.0 mi SSE 11.5 mph - N/A   Partly Cloudy
12:35 PM 86.0 °F 95.1 °F 75.2 °F 70% 30.13 in 8.0 mi SSE 10.4 mph - N/A   Partly Cloudy
12:55 PM 86.0 °F 96.9 °F 77.0 °F 74% 30.13 in 7.0 mi SSE 11.5 mph - N/A   Partly Cloudy
1:15 PM 86.0 °F 95.1 °F 75.2 °F 70% 30.12 in 8.0 mi SSE 11.5 mph - N/A   Partly Cloudy
1:35 PM 84.2 °F 92.3 °F 75.2 °F 74% 30.11 in 8.0 mi SSE 12.7 mph - N/A   Scattered Clouds
1:55 PM 84.2 °F 92.3 °F 75.2 °F 74% 30.11 in 8.0 mi SE 11.5 mph - N/A   Mostly Cloudy
2:15 PM 84.2 °F 92.3 °F 75.2 °F 74% 30.10 in 8.0 mi SSE 12.7 mph - N/A   Mostly Cloudy
2:35 PM 84.2 °F 92.3 °F 75.2 °F 74% 30.10 in 8.0 mi SE 11.5 mph - N/A   Scattered Clouds
2:55 PM 86.0 °F 95.1 °F 75.2 °F 70% 30.09 in 8.0 mi SSE 10.4 mph - N/A   Partly Cloudy
3:15 PM 86.0 °F 95.1 °F 75.2 °F 70% 30.09 in 9.0 mi SSE 11.5 mph 19.6 mph N/A   Scattered Clouds
3:35 PM 84.2 °F 92.3 °F 75.2 °F 74% 30.08 in 9.0 mi SSE 15.0 mph - N/A   Mostly Cloudy
3:55 PM 84.2 °F 92.3 °F 75.2 °F 74% 30.08 in 9.0 mi SSE 15.0 mph - N/A   Mostly Cloudy
4:15 PM 84.2 °F 92.3 °F 75.2 °F 74% 30.08 in 9.0 mi SSE 13.8 mph - N/A   Scattered Clouds
4:35 PM 84.2 °F 92.3 °F 75.2 °F 74% 30.07 in 9.0 mi SSE 13.8 mph - N/A   Scattered Clouds
4:55 PM 84.2 °F 92.3 °F 75.2 °F 74% 30.08 in 9.0 mi SSE 15.0 mph - N/A   Mostly Cloudy
5:15 PM 84.2 °F 92.3 °F 75.2 °F 74% 30.07 in 9.0 mi SSE 15.0 mph - N/A   Mostly Cloudy
5:35 PM 84.2 °F 90.9 °F 73.4 °F 70% 30.07 in 9.0 mi SSE 13.8 mph - N/A   Partly Cloudy
5:55 PM 84.2 °F 90.9 °F 73.4 °F 70% 30.06 in 9.0 mi SSE 13.8 mph - N/A   Partly Cloudy
6:15 PM 84.2 °F 92.3 °F 75.2 °F 74% 30.06 in 9.0 mi SSE 13.8 mph - N/A   Partly Cloudy
6:35 PM 84.2 °F 90.9 °F 73.4 °F 70% 30.06 in 9.0 mi SSE 13.8 mph - N/A   Partly Cloudy
6:55 PM 84.2 °F 90.9 °F 73.4 °F 70% 30.05 in 9.0 mi SSE 13.8 mph - N/A   Partly Cloudy
7:15 PM 82.4 °F 89.5 °F 75.2 °F 79% 30.06 in 9.0 mi SSE 13.8 mph - N/A   Partly Cloudy
7:35 PM 82.4 °F 89.5 °F 75.2 °F 79% 30.06 in 8.0 mi SE 13.8 mph - N/A   Partly Cloudy
7:55 PM 82.4 °F 88.2 °F 73.4 °F 74% 30.06 in 8.0 mi SSE 15.0 mph - N/A   Partly Cloudy
8:15 PM 82.4 °F 89.5 °F 75.2 °F 79% 30.06 in 8.0 mi SSE 16.1 mph - N/A   Mostly Cloudy
8:35 PM 82.4 °F 88.2 °F 73.4 °F 74% 30.07 in 9.0 mi SSE 15.0 mph - N/A   Scattered Clouds
8:55 PM 82.4 °F 88.2 °F 73.4 °F 74% 30.07 in 9.0 mi SSE 15.0 mph - N/A   Partly Cloudy
9:15 PM 82.4 °F 88.2 °F 73.4 °F 74% 30.07 in 9.0 mi SSE 15.0 mph - N/A   Unknown
9:35 PM 82.4 °F 88.2 °F 73.4 °F 74% 30.08 in 9.0 mi SSE 15.0 mph - N/A   Clear
9:55 PM 82.4 °F 88.2 °F 73.4 °F 74% 30.08 in 9.0 mi SE 17.3 mph - N/A   Partly Cloudy
10:15 PM 82.4 °F 88.2 °F 73.4 °F 74% 30.08 in 9.0 mi SSE 16.1 mph - N/A   Clear
10:35 PM 82.4 °F 88.2 °F 73.4 °F 74% 30.08 in 9.0 mi SE 15.0 mph - N/A   Clear
10:55 PM 82.4 °F 89.5 °F 75.2 °F 79% 30.08 in 9.0 mi SE 17.3 mph - N/A   Clear
11:15 PM 82.4 °F 89.5 °F 75.2 °F 79% 30.08 in 9.0 mi SSE 18.4 mph - N/A   Clear
11:35 PM 80.6 °F 85.4 °F 73.4 °F 79% 30.08 in 9.0 mi SSE 17.3 mph - N/A   Clear
11:55 PM 82.4 °F 88.2 °F 73.4 °F 74% 30.08 in 9.0 mi SSE 16.1 mph - N/A   Partly Cloudy